Location: Bédeille
(43.0872°N, 1.1041°E)
Time: 02:05:26
(UTC+00:00)

COSMOS 2428 - Pass Details

Date: 03 February 2023
Orbit: 843 x 858 km, 70.9° (Epoch: 27 March)

Event Time Altitude Azimuth Distance (km) Brightness Sun altitude
Rises 18:25:55 0° 161° (SSE) 3,389 5.7 -14.1°
Reaches altitude 10° 18:28:59 10° 145° (SE) 2,458 4.9 -14.7°
Enters shadow 18:32:25 20° 107° (ESE) 1,877 4.0 -15.3°
